South Burlington, VT

8:34 AM EDT on September 30, 2016 (GMT -0400)
Burlington International

Weather History for KBTV - December, 2012

Change the Weather History Date:

Tuesday, December 4, 2012

  Actual Average Record
Temperature  
Mean Temperature 47 °F 31 °F  
Max Temperature 56 °F 38 °F 65 °F (1982)
Min Temperature 37 °F 24 °F -17 °F (1940)
Degree Days  
Heating Degree Days 18 34  
Month to date heating degree days 103 134  
Since 1 July heating degree days 1455 1679  
Cooling Degree Days 0 0  
Month to date cooling degree days 0 0  
Year to date cooling degree days 747 491  
Moisture  
Dew Point 44 °F    
Average Humidity 80    
Maximum Humidity 89    
Minimum Humidity 71    
Precipitation  
Precipitation 0.14 in 0.09 in 2.58 in (1950)
Month to date precipitation 0.27 0.36  
Year to date precipitation 32.91 34.80  
Snow  
Snow 0.00 in 0.50 in 9.50 in (1970)
Month to date snowfall 0.5 1.8  
Since 1 July snowfall 4.3 7.2  
Snow Depth 0.00 in    
Sea Level Pressure  
Sea Level Pressure 30.02 in    
Wind  
Wind Speed 15 mph (South)    
Max Wind Speed 28 mph    
Max Gust Speed 39 mph    
Visibility 8 miles    
Events Rain    
T = Trace of Precipitation, MM = Missing Value Source: NWS Daily Summary

Daily Weather History Graph

Daily Weather History Graph

Search for Another Location

Airport or City:

Trip Planner

Search our weather history database for the weather conditions in past years. The results will help you decide how hot, cold, wet, or windy it might be!

Date:

Astronomy

Dec. 04, 2012 Rise Set
Actual Time 7:12 AM EST 4:13 PM EST
Civil Twilight 6:39 AM EST 4:46 PM EST
Nautical Twilight 6:03 AM EST 5:22 PM EST
Astronomical Twilight 5:28 AM EST 5:57 PM EST
Moon 10:07 PM EST (12/4) 10:57 AM EST (12/4)
Length of Visible Light 10h 06m
Length of Day
9h 00m
Waning Gibbous, 69% of the Moon is Illuminated
Dec 4
Waning Gibbous
Dec 6
Last Quarter
Dec 13
New
Dec 20
First Quarter
Dec 28
Full

Hourly Weather History & Observations

Time (EST) Temp. Windchill Dew Point Humidity Pressure Visibility Wind Dir Wind Speed Gust Speed Precip Events Conditions
12:54 AM 41.0 °F 37.1 °F 35.1 °F 79% 30.23 in 10.0 mi SSE 5.8 mph - N/A   Overcast
1:54 AM 42.1 °F 38.4 °F 36.0 °F 79% 30.23 in 10.0 mi SSW 5.8 mph - N/A   Overcast
2:40 AM 39.2 °F 37.0 °F 35.6 °F 87% 30.20 in 10.0 mi SSE 3.5 mph - N/A   Scattered Clouds
2:54 AM 39.9 °F 36.7 °F 35.1 °F 83% 30.20 in 10.0 mi SE 4.6 mph - N/A   Clear
3:54 AM 39.9 °F 36.7 °F 35.1 °F 83% 30.19 in 10.0 mi SSW 4.6 mph - N/A   Clear
4:54 AM 42.1 °F 35.7 °F 36.0 °F 79% 30.16 in 10.0 mi South 11.5 mph - N/A   Clear
5:54 AM 42.1 °F 35.2 °F 36.0 °F 79% 30.15 in 10.0 mi South 12.7 mph - N/A   Clear
6:24 AM 44.6 °F 37.4 °F 37.4 °F 76% 30.14 in 10.0 mi South 16.1 mph 23.0 mph N/A   Mostly Cloudy
6:54 AM 45.0 °F 38.5 °F 37.9 °F 76% 30.14 in 10.0 mi South 13.8 mph 20.7 mph N/A   Overcast
7:54 AM 46.9 °F - 39.0 °F 74% 30.13 in 10.0 mi South 12.7 mph 20.7 mph N/A   Mostly Cloudy
8:42 AM 48.2 °F - 39.2 °F 71% 30.11 in 8.0 mi South 20.7 mph 29.9 mph 0.00 in Rain Light Rain
8:54 AM 46.9 °F - 41.0 °F 80% 30.13 in 5.0 mi South 13.8 mph 31.1 mph 0.01 in Rain Light Rain
9:54 AM 48.0 °F - 43.0 °F 83% 30.12 in 10.0 mi South 20.7 mph 28.8 mph 0.01 in   Mostly Cloudy
10:54 AM 52.0 °F - 44.1 °F 74% 30.09 in 10.0 mi South 19.6 mph 27.6 mph N/A   Scattered Clouds
11:54 AM 54.0 °F - 45.0 °F 72% 30.06 in 10.0 mi South 19.6 mph 25.3 mph N/A   Mostly Cloudy
12:54 PM 53.6 °F - 44.6 °F 72% 30.02 in 10.0 mi South 26.5 mph 39.1 mph N/A   Scattered Clouds
1:54 PM 54.0 °F - 46.0 °F 75% 30.00 in 9.0 mi South 23.0 mph 31.1 mph N/A   Scattered Clouds
2:54 PM 54.0 °F - 46.9 °F 77% 29.99 in 10.0 mi South 18.4 mph 31.1 mph N/A   Scattered Clouds
3:54 PM 54.0 °F - 48.9 °F 83% 29.97 in 9.0 mi South 18.4 mph 27.6 mph N/A   Mostly Cloudy
4:54 PM 54.0 °F - 48.0 °F 80% 29.96 in 10.0 mi South 12.7 mph - N/A   Mostly Cloudy
5:30 PM 53.6 °F - 48.2 °F 82% 29.93 in 9.0 mi South 11.5 mph - N/A   Overcast
5:54 PM 54.0 °F - 48.9 °F 83% 29.93 in 9.0 mi South 16.1 mph 26.5 mph N/A   Mostly Cloudy
6:41 PM 53.6 °F - 48.2 °F 82% 29.91 in 8.0 mi South 15.0 mph 23.0 mph N/A   Scattered Clouds
6:54 PM 53.1 °F - 48.9 °F 86% 29.91 in 8.0 mi South 10.4 mph 25.3 mph N/A   Scattered Clouds
7:54 PM 54.0 °F - 48.9 °F 83% 29.88 in 8.0 mi South 19.6 mph 32.2 mph N/A   Partly Cloudy
8:30 PM 55.4 °F - 48.2 °F 77% 29.86 in 7.0 mi South 17.3 mph 35.7 mph N/A   Overcast
8:54 PM 54.0 °F - 50.0 °F 86% 29.87 in 7.0 mi South 19.6 mph 31.1 mph N/A   Overcast
9:43 PM 55.4 °F - 50.0 °F 82% 29.84 in 7.0 mi South 21.9 mph 28.8 mph N/A   Overcast
9:54 PM 55.9 °F - 50.0 °F 80% 29.84 in 7.0 mi South 20.7 mph 27.6 mph 0.00 in Rain Light Rain
10:54 PM 55.0 °F - 51.1 °F 86% 29.82 in 6.0 mi South 13.8 mph 25.3 mph 0.01 in Rain Light Rain
11:34 PM 53.6 °F - 51.8 °F 94% 29.84 in 2.5 mi West 12.7 mph - 0.03 in Rain Rain
11:38 PM 53.6 °F - 51.8 °F 94% 29.84 in 2.0 mi WSW 12.7 mph 20.7 mph 0.05 in Rain Heavy Rain
11:47 PM 51.8 °F - 48.2 °F 88% 29.85 in 3.0 mi NW 17.3 mph 24.2 mph 0.09 in Rain Rain
11:54 PM 51.1 °F - 48.0 °F 89% 29.86 in 5.0 mi NNW 17.3 mph - 0.10 in Rain Light Rain